Location: Albany
(42.6526°N, 73.7562°W)
Time: 02:47:20
(UTC+00:00)

COBE Rocket - Pass Details

Date: 19 November 2019
Orbit: 679 x 783 km, 97.1° (Epoch: 15 December)

Event Time Altitude Azimuth Distance (km) Brightness Sun altitude
Rises 22:36:35 0° 11° (N) 3,111 6.9 -12.4°
Reaches altitude 10° 22:38:52 10° 11° (N) 2,174 6.1 -12.8°
Maximum altitude 22:43:37 86° 286° (WNW) 697 3.8 -13.7°
Drops below altitude 10° 22:48:16 10° 195° (SSW) 2,118 6.7 -14.5°
Sets 22:50:28 0° 195° (SSW) 3,024 7.5 -14.9°
